BREEZE-M DEB (TANK), 39129

Orbit data source: Space-Track

BREEZE-M DEB (TANK), 39129 is space debris in HEO originally from a launch on Mon, 15 Apr 2013 UTC launched from the Tyuratam Missile And Space Complex (TTMTR). Debris objects in space refer to the collection of defunct objects orbiting the Earth. Examples of debris include non-operational satellites, rocket bodies, and fragments generated from explosions, collisions, or faulty payload assembly.

Loading next visibility...
Identifier
39129, 2013-014C
Orbit
HEO
Country
Flag of CISCIS
Related business
Manufacturer
Khrunichev
Mission
Spacecraft
Bus & Motor
BRIZ TANK, Unknown motor
Mass
~1,000 kg wet, 1,000 kg dry
Launch date (UTC)
2013-04-15 (13 years ago)
Launch vehicle
Unknown
Launch site
Tyuratam Missile And Space Complex (TTMTR)
Object type
Payload
Rocket body
Debris
Shape & HBR
Torus, 2.0 m
Radar Cross Section
8.218 m², Large (>1 m²)

Expand to show TLE details & history
Last TLE update: 16 hours ago

TLE from 16 hours ago
0 BREEZE-M DEB (TANK)
1 39129U 13014C   26208.66644829  .00003853  00000-0  15763-2 0  9999
2 39129  49.4235  63.9066 5835193  57.4781 346.1129  4.24933911191462
Epoch: 2026-07-27T15:59Z
TLE epoch observation values (Epoch: 2026-07-27T15:59:41.132Z)
Latitude
-0°
Longitude
-121.33656°
Altitude
1,690.947 km
Speed
8.605 km/s
True Right ascension
04h 15m 43s
True Declination
0° 00' 00"
Sunlit
Object was in daylight at epoch
Visualization orbit readout
Latitude
Unknown
Longitude
Unknown
Altitude
Unknown
Speed
Unknown
Apparent Right ascension
Unknown
Apparent Declination
Unknown
Sunlit
N/A
Visualization observer readout
Local Sidereal Time
21:21:09
Azimuth
Unknown
Elevation
Unknown
Doppler factor
Unknown
Orbital elements
Apogee altitude
19,119.294 km
Perigee altitude
327.931 km
Semi-major axis
16,101.749 km
Eccentricity
0.58352
Inclination
49.4235°
RAAN
63.9066°
Arg. of periapsis
57.4781°
True anomaly
302.84941°
Mean anomaly
346.1129°
Eccentric anomaly
328.78723°
Mean motion
1.06227 °/min
Orbital period
338.9 mins
BSTAR
0.0015763
Loading maneuver chart data...
Computing Atmospheric mass density...
Loading historical data...
Loading historical data...
Loading historical data...
Loading historical data...
Loading historical data...
Loading historical data...
Loading historical data...
Other satellites on launch #14 in the year 2013 (2013-04-15 UTC)

Documentation

Showing up to 5 results
|